Regional Weather Roundup
Issued by NWS

Home | Current Version | Previous Version | Graphics & Text | Print | Product List | Glossary On
Versions: 1 2 3 4 5 6 7 8 9 10 11 12 13 14 15 16 17 18 19 20 21 22 23 24 25 26 27 28 29 30 31 32 33 34 35 36 37 38 39 40 41 42 43 44 45 46 47 48 49 50
000
ASUS45 KTFX 291719
RWRMT
MONTANA HOURLY WEATHER ROUNDUP
NATIONAL WEATHER SERVICE GREAT FALLS MT
1119 AM MDT SUN MAR 29 2015

NOTE: "FAIR" INDICATES FEW OR NO CLOUDS BELOW 12000 FEET WITH NO
SIGNIFICANT WEATHER AND/OR OBSTRUCTIONS TO VISIBILITY.

* THESE STATIONS ARE NOT UNDER NWS QUALITY CONTROL. THEY DO NOT
   REPORT WEATHER SUCH AS PRECIPITATION OR FOG.

MTZ001>007-043-291800-
WEST OF THE DIVIDE
CITY           SKY/WX    TMP DP  RH WIND       PRES   REMARKS
KALISPELL      CLOUDY    46  36  68 SE10      30.25S
MISSOULA       PTSUNNY   39  30  70 CALM      30.32F
BUTTE          PTSUNNY   41  21  45 NE6       30.29F
MULLAN PASS    CLOUDY    34  28  79 VRB7      30.25R WCI  28
* ESSEX        N/A       44  33  65 NW1        N/A
* EUREKA APT   CLOUDY    50  34  54 SE7       30.24S
* HAMILTON APT CLOUDY    46  27  48 S14       30.28F
* LIBBY APT    PTCLDY    46  36  68 N3        30.25F
* LINCOLN      N/A       42  26  53 SW4        N/A
* LOOKOUT PASS N/A       40  32  73 SE3        N/A
* POLSON       N/A       46  33  61 S2G8       N/A
* RONAN APT    PTSUNNY   50  34  54 SE11       N/A
* SEELEY LAKE  N/A       44  29  56 S4         N/A
* THOMP F APT  PTSUNNY   39  14  36 S2G8       N/A
$$

MTZ008-052>055-291800-
SOUTHWEST MONTANA
CITY           SKY/WX    TMP DP  RH WIND       PRES   REMARKS
BOZEMAN        PTSUNNY   46  25  44 N6        30.28S
DILLON         PTSUNNY   45  18  34 SW12      30.29S
* W YELLOWSTON PTSUNNY   38  19  46 SW4G10     N/A
* TWIN BRIDGES CLOUDY    39  19  45 S6         N/A   WCI  35
* BOULDER HILL N/A       39  19  45 S12G19     N/A   WCI  32
* HOMESTAKE PS N/A       37  18  46 NW4        N/A
* MONIDA PASS  N/A       38  17  42 SE11       N/A   WCI  31
* RAYNOLDS PAS N/A       34  18  52 SE14G20    N/A   WCI  24
* WHITEHALL    N/A       46  25  44 SW14G22    N/A
* WISE RIVER   N/A       33  23  67 W4         N/A
$$

MTZ009>010-012-014-046-048-049-054-291800-
EAST SLOPES AND CENTRAL MONTANA
CITY           SKY/WX    TMP DP  RH WIND       PRES   REMARKS
CUT BANK       CLOUDY    48  27  44 W31G39    30.08S
GREAT FALLS    CLOUDY    48  25  41 SW21      30.13F
HELENA         CLOUDY    50  21  32 W9        30.24S
* CONRAD       CLOUDY    46  32  58 CALM       N/A
* DEARBORN     N/A       49  24  38 SE9G16     N/A
* EAST GLACIER N/A       40  27  60 W21G26     N/A   WCI  30
* MONARCH      N/A       42  20  41 SW11       N/A
* PENDROY      N/A       47  28  48 E1         N/A
* ROGERS PASS  N/A       36  22  57 SE17G29    N/A   WCI  26
* SAINT MARY   N/A       41  27  58 SW10G24    N/A
* WHITE SULPH  N/A       46  22  39 NW2G7      N/A
$$

MTZ011-013-016-021-035-040-045-047-050-051-291800-
NORTH CENTRAL MONTANA
CITY           SKY/WX    TMP DP  RH WIND       PRES   REMARKS
HAVRE          PTCLDY    52  36  55 SW23      30.07F
LEWISTOWN      PTSUNNY   52  28  40 W15       30.15F
* N BAR RANCH  SUNNY     48  25  41 NW13G20   30.16F
* CHINOOK      PTCLDY    54  32  43 W18G26    30.07F
* FORT BENTON  CLOUDY    52  28  40 SW15G24   30.13F
* CHESTER      N/A       48  34  59 W7G15      N/A
* DENTON       N/A       52  27  38 SW22       N/A
* GEYSER       N/A       48  21  34 SW21G27    N/A
* JUDITH GAP   N/A       46  23  40 NE6        N/A
* LOMA         N/A       52  29  41 SW16G28    N/A
$$

MTZ017>020-022>027-061-062-291800-
NORTHEAST MONTANA
CITY           SKY/WX    TMP DP  RH WIND       PRES   REMARKS
GLASGOW        SUNNY     50  37  61 W10       30.09F
GLENDIVE       SUNNY     54  34  47 NW20G29   30.12F
JORDAN         SUNNY     54  36  51 W17       30.12F
SIDNEY         PTSUNNY   52  37  57 W14G20    30.09F
WOLF POINT     PTSUNNY   52  37  57 W15       30.09F
* BEAVER HILL  N/A       47  38  71 W18G23     N/A
* CIRCLE       N/A       50  41  71 SW14       N/A
* LINDSAY DVD  N/A       47  38  71 W20G26     N/A
* NAVAJO       N/A       45  38  77 W16G21     N/A
* POPLAR APT   PTCLDY    46  41  83 SW14      30.09F
* SACO         N/A       49  39  69 SW12       N/A
$$

MTZ028>042-056>058-291800-
SOUTHCENTRAL AND SOUTHEAST MONTANA
CITY           SKY/WX    TMP DP  RH WIND       PRES   REMARKS
BAKER          PTCLDY    52  37  57 NW17G25   30.13F
BILLINGS       PTCLDY    54  25  33 S9        30.19F
LIVINGSTON     PTSUNNY   52  19  27 W22G28    30.22S
MILES CITY     SUNNY     55  36  49 NW16      30.15F
* BIG TIMBER A PTSUNNY   48  18  30 W30G39    30.17F
* FORSYTH APT  SUNNY     55  30  39 W13       30.15F
* LAUREL APT   PTCLDY    52  21  30 S5         N/A
* ALZADA       N/A       51  32  48 W12G17     N/A
* HYSHAM       N/A       51  26  38 W4G13      N/A
* LAME DEER    N/A       47  28  48 W8G13      N/A
* REED POINT   N/A       51  24  35 W17G22     N/A
* ROSCOE HILL  N/A       47  15  28 NE6        N/A
$$

REGIONAL REPORTS...DAKOTAS
CITY           SKY/WX    TMP DP  RH WIND       PRES   REMARKS
WILLISTON      SUNNY     48  37  66 W14       30.07S
DICKINSON      SUNNY     48  36  63 W21G29    30.08R
BEACH          PTSUNNY   48  39  71 W21       30.11F
CROSBY         SUNNY     48  39  71 W16       30.04S
TIOGA          SUNNY     46  37  71 W15       30.07S
WATFORD CITY   SUNNY     48  37  66 W14       30.07R
BISMARCK       SUNNY     52  30  43 NW20G28   30.06R
GRAND FORKS    PTSUNNY   46  34  63 NW25G36   29.84R
FARGO          PTSUNNY   48  34  59 NW30G41   29.85R
BUFFALO SD     SUNNY     52  34  50 NW22G31   30.07F
RAPID CITY     SUNNY     54  32  43 N22G30    30.19F
$$

REGIONAL REPORTS...WYOMING/IDAHO/WASHINGTON
CITY           SKY/WX    TMP DP  RH WIND       PRES   REMARKS
GILLETTE       SUNNY     52  27  38 NW16G21   30.21F
SHERIDAN       SUNNY     54  21  27 VRB3      30.21F
CODY           PTCLDY    54  14  20 NW6       30.19F
YELLOWSTONE LA PTCLDY    32  19  59 VRB5      30.34S WCI  27
SALMON         PTCLDY    41  23  49 CALM      30.33F
MULLAN PASS    CLOUDY    34  28  79 VRB7      30.25S WCI  28
SAND POINT     CLOUDY    45  37  74 SE5       30.27F
SPOKANE        PTSUNNY   48  37  66 S9        30.25S
$$

REGIONAL REPORTS...ALBERTA
CITY           SKY/WX    TMP DP  RH WIND       PRES   REMARKS
CALGARY        CLOUDY    48  27  44 SW9       29.92F
LETHBRIDGE     PTSUNNY   52  28  40 W36G46    29.98F
MEDICINE HAT   PTSUNNY   54  37  53 W21       29.98F
EDMONTON       PTSUNNY   45  36  71 S7        29.83F
WATERTON GATE  N/A       46  25  44 SW21G32    N/A
CARDSTON       N/A       48  27  44 W14G21     N/A
$$

REGIONAL REPORTS...SASKATCHEWAN
CITY           SKY/WX    TMP DP  RH WIND       PRES   REMARKS
SWIFT CURRENT  SUNNY     50  37  61 SW9       29.98F
REGINA         SUNNY     43  39  86 W16       29.99S
VAL MARIE      N/A       52  37  57 W15        N/A
ASSINIBOIA     N/A       48  36  63 NW14       N/A
CORONACH       N/A       48  39  71 SW12       N/A

$$



USA.gov is the U.S. government's official web portal to all federal, state and local government web resources and services.